Weather History for KMHR - January, 2013

Change the Weather History Date:

Thursday, January 3, 2013

  Actual Average Record
Temperature  
Mean Temperature 38 °F -  
Max Temperature 51 °F 51 °F 64 °F (2014)
Min Temperature 26 °F 38 °F 26 °F (2013)
Degree Days  
Heating Degree Days 26    
Moisture  
Dew Point 31 °F    
Average Humidity 78    
Maximum Humidity 100    
Minimum Humidity 47    
Precipitation  
Precipitation 0.00 in - - ()
Sea Level Pressure  
Sea Level Pressure 30.24 in    
Wind  
Wind Speed 1 mph (NNW)    
Max Wind Speed 8 mph    
Max Gust Speed -    
Visibility 10 miles    
Events      
Averages and records for this station are not official NWS values.
T = Trace of Precipitation, MM = Missing Value Source: NWS Daily Summary

Daily Weather History Graph

Daily Weather History Graph

Search for Another Location

Airport or City:

Trip Planner

Search our weather history database for the weather conditions in past years. The results will help you decide how hot, cold, wet, or windy it might be!

Date:

Astronomy

Jan. 03, 2013 Rise Set
Actual Time 7:23 AM PST 4:56 PM PST
Civil Twilight 6:53 AM PST 5:26 PM PST
Nautical Twilight 6:20 AM PST 5:59 PM PST
Astronomical Twilight 5:48 AM PST 6:31 PM PST
Moon 11:32 PM PST (1/3) 10:42 AM PST (1/3)
Length of Visible Light 10h 33m
Length of Day
9h 33m
Waning Gibbous, 64% of the Moon is Illuminated
Jan 3
Waning Gibbous
Jan 4
Last Quarter
Jan 11
New
Jan 18
First Quarter
Jan 26
Full

Hourly Weather History & Observations

Time (PST) Temp. Windchill Dew Point Humidity Pressure Visibility Wind Dir Wind Speed Gust Speed Precip Events Conditions
12:49 AM 30.2 °F - 28.4 °F 93% 30.19 in 10.0 mi Calm Calm - N/A   Clear
1:57 AM 30.2 °F 26.7 °F 28.4 °F 93% 30.20 in 10.0 mi NE 3.5 mph - N/A   Clear
2:53 AM 28.4 °F 23.3 °F 26.6 °F 93% 30.21 in 10.0 mi WSW 4.6 mph - N/A   Clear
4:50 AM 28.4 °F 23.3 °F 26.6 °F 93% 30.20 in 10.0 mi ENE 4.6 mph - N/A   Clear
5:51 AM 28.4 °F - 26.6 °F 93% 30.20 in 10.0 mi Calm Calm - N/A   Clear
6:46 AM 26.6 °F - 24.8 °F 93% 30.21 in 10.0 mi Calm Calm - N/A   Clear
7:46 AM 26.6 °F - 26.6 °F 100% 30.23 in 10.0 mi Calm Calm - N/A   Partly Cloudy
8:49 AM 32.0 °F - 30.2 °F 93% 30.25 in 10.0 mi Calm Calm - N/A   Partly Cloudy
9:46 AM 39.2 °F - 32.0 °F 75% 30.28 in 10.0 mi Calm Calm - N/A   Partly Cloudy
10:48 AM 42.8 °F - 32.0 °F 66% 30.29 in 10.0 mi Calm Calm - N/A   Partly Cloudy
11:46 AM 46.4 °F - 35.6 °F 66% 30.26 in 10.0 mi Calm Calm - N/A   Partly Cloudy
12:46 PM 48.2 °F - 33.8 °F 58% 30.25 in 10.0 mi Calm Calm - N/A   Partly Cloudy
1:45 PM 51.8 °F - 32.0 °F 47% 30.23 in 10.0 mi Calm Calm - N/A   Scattered Clouds
2:45 PM 50.0 °F - 32.0 °F 50% 30.23 in 10.0 mi Calm Calm - N/A   Scattered Clouds
3:45 PM 51.8 °F - 33.8 °F 50% 30.23 in 10.0 mi NNW 3.5 mph - N/A   Scattered Clouds
4:45 PM 48.2 °F - 35.6 °F 62% 30.24 in 10.0 mi Calm Calm - N/A   Partly Cloudy
5:45 PM 46.4 °F 42.4 °F 35.6 °F 66% 30.25 in 10.0 mi NW 8.1 mph - N/A   Partly Cloudy
7:45 PM 39.2 °F - 35.6 °F 87% 30.27 in 10.0 mi Calm Calm - N/A   Clear
8:45 PM 37.4 °F - 35.6 °F 93% 30.27 in 10.0 mi Calm Calm - N/A   Clear
10:47 PM 32.0 °F - 30.2 °F 93% 30.28 in 10.0 mi Calm Calm - N/A   Clear